FW6618 Weather Reports


Display with metric or nautical units.
time (UTC)temp
F
wind
direction
speed
MPH
gust
MPH
rain 1hr
in
rain 24hr
in
rain mn
in
humidity
%
barometer
mb
20260507024023 44 0 0.0 0.0 0.02 1.57 1.56 95 1010.6
20260507023525 44 0 0.0 0.0 0.02 1.57 1.56 95 1010.7
20260507023040 44 0 0.0 0.0 0.02 1.57 1.56 95 1010.8
20260507022520 44 0 0.0 0.0 0.02 1.57 1.56 95 1010.9
20260507022018 44 0 0.0 0.0 0.02 1.57 1.56 95 1010.9
20260507021536 44 0 0.0 0.0 0.03 1.57 1.56 95 1010.9
20260507021022 44 0 0.0 0.0 0.04 1.57 1.56 95 1010.8
20260507020519 44 0 0.0 0.0 0.04 1.57 1.56 95 1010.9
20260507020034 44 0 0.0 0.0 0.03 1.56 1.55 95 1010.9
20260507015517 44 0 0.0 0.0 0.04 1.56 1.55 95 1010.9
20260507015020 44 0 0.0 0.0 0.04 1.56 1.55 95 1011.0
20260507014542 44 0 0.0 0.0 0.04 1.56 1.55 95 1010.9
20260507014019 44 0 0.0 0.0 0.04 1.55 1.54 95 1010.7
20260507013519 44 0 0.0 0.0 0.04 1.55 1.54 95 1010.8
20260507013042 44 0 0.0 0.0 0.04 1.55 1.54 95 1010.8
20260507012517 44 0 0.0 0.0 0.05 1.55 1.54 95 1010.8
20260507012017 44 0 0.0 1.0 0.04 1.54 1.53 95 1010.7
20260507011532 44 0 0.0 1.0 0.04 1.54 1.53 95 1010.8
20260507011016 44 0 0.0 2.0 0.03 1.53 1.52 95 1010.8
20260507010517 45 0 0.0 2.0 0.03 1.53 1.52 95 1010.8
20260507010034 45 0 0.0 1.0 0.04 1.53 1.52 95 1010.6
20260507005523 45 0 0.0 1.0 0.03 1.52 1.51 95 1010.6
20260507005015 45 0 0.0 1.0 0.03 1.52 1.51 95 1010.4
20260507004541 45 0 0.0 0.0 0.04 1.52 1.51 95 1010.4
20260507004017 45 0 0.0 1.0 0.03 1.51 1.50 95 1010.4
20260507003518 45 0 0.0 1.0 0.03 1.51 1.50 95 1010.2
20260507003034 45 154 0.0 1.0 0.04 1.51 1.50 95 1010.2
20260507002519 45 285 0.0 2.0 0.03 1.50 1.49 95 1010.0
20260507002019 45 126 0.0 2.0 0.03 1.50 1.49 95 1009.9
20260507001531 46 0 0.0 2.0 0.03 1.50 1.49 95 1009.8
20260507001018 46 150 1.0 2.0 0.03 1.50 1.49 95 1009.6
20260507000518 46 0 0.0 3.0 0.03 1.50 1.49 95 1009.6
20260507000038 46 173 0.0 3.0 0.02 1.49 1.48 95 1009.4
20260506235519 46 200 0.0 2.0 0.02 1.49 1.48 95 1009.3
20260506235016 46 245 0.0 1.0 0.01 1.48 1.47 95 1009.1
20260506234537 47 117 0.0 1.0 0.01 1.48 1.47 95 1009.1
20260506234019 47 0 0.0 0.0 0.01 1.48 1.47 95 1009.1
20260506233518 47 0 0.0 0.0 0.01 1.48 1.47 95 1009.0
20260506233038 47 0 0.0 0.0 0.00 1.47 1.46 95 1008.7
20260506232520 47 0 0.0 0.0 0.00 1.47 1.46 95 1008.5
20260506232018 47 0 0.0 0.0 0.00 1.47 1.46 95 1008.4
20260506231547 47 0 0.0 1.0 0.00 1.47 1.46 95 1008.2
20260506231015 46 0 0.0 1.0 0.01 1.47 1.46 95 1008.0
20260506230517 47 18 0.0 1.0 0.01 1.47 1.46 95 1008.0
20260506230050 47 22 0.0 3.0 0.01 1.47 1.46 95 1008.1
20260506225522 47 0 0.0 3.0 0.01 1.47 1.46 95 1008.1
20260506225016 47 278 1.0 3.0 0.01 1.47 1.46 95 1008.0
20260506224535 47 0 0.0 2.0 0.01 1.47 1.46 95 1007.7
20260506224018 47 0 0.0 2.0 0.01 1.47 1.46 95 1007.8
20260506223516 48 283 0.0 2.0 0.02 1.47 1.46 95 1007.6
20260506223046 48 225 0.0 2.0 0.04 1.47 1.46 95 1007.7
20260506222520 48 247 0.0 2.0 0.04 1.47 1.46 95 1007.6
20260506222017 48 283 1.0 1.0 0.04 1.47 1.46 95 1007.5
20260506221537 48 245 0.0 3.0 0.05 1.47 1.46 95 1007.3
20260506221019 48 276 1.0 3.0 0.04 1.46 1.45 95 1007.2
20260506220521 49 295 1.0 3.0 0.04 1.46 1.45 95 1007.2
20260506220033 49 266 1.0 2.0 0.04 1.46 1.45 95 1006.9
20260506215523 49 288 1.0 2.0 0.04 1.49 1.45 95 1006.7
20260506215016 49 139 0.0 4.0 0.04 1.49 1.45 95 1006.4
20260506214536 49 120 1.0 4.0 0.04 1.49 1.45 95 1006.5
20260506214016 49 96 1.0 3.0 0.04 1.49 1.45 95 1006.6
20260506213520 49 100 0.0 4.0 0.03 1.48 1.44 95 1006.4
20260506213045 49 302 1.0 4.0 0.01 1.46 1.42 95 1006.4
20260506212517 50 268 0.0 4.0 0.02 1.46 1.42 95 1006.1
20260506212017 50 0 1.0 4.0 0.03 1.46 1.42 95 1006.1
20260506211547 51 0 1.0 7.0 0.05 1.45 1.41 95 1006.2
20260506211017 51 77 2.0 7.0 0.05 1.45 1.41 95 1006.1
20260506210517 52 77 2.0 7.0 0.06 1.45 1.41 94 1006.0
20260506210035 53 92 4.0 8.0 0.11 1.45 1.41 94 1006.1
20260506205518 55 127 2.0 8.0 0.20 1.47 1.41 94 1006.2
20260506205016 57 95 1.0 4.0 0.23 1.47 1.41 95 1006.1
20260506204545 57 224 1.0 5.0 0.26 1.47 1.41 95 1006.1
20260506204018 57 342 2.0 8.0 0.29 1.47 1.41 95 1006.0
20260506203516 57 235 2.0 8.0 0.31 1.47 1.41 95 1006.1
20260506203040 57 262 0.0 4.0 0.32 1.47 1.41 96 1006.1
20260506202518 58 212 1.0 4.0 0.33 1.46 1.40 96 1006.1
20260506202017 58 225 1.0 2.0 0.33 1.44 1.38 96 1006.0
20260506201538 58 234 1.0 2.0 0.34 1.42 1.36 96 1006.0
20260506201019 58 248 1.0 2.0 0.36 1.42 1.36 96 1006.0
20260506200516 58 282 1.0 4.0 0.38 1.40 1.34 96 1006.2
20260506200036 58 300 2.0 5.0 0.33 1.34 1.28 96 1006.1
20260506195517 58 68 2.0 11.0 0.26 1.26 1.20 96 1006.0
20260506195018 58 329 3.0 11.0 0.26 1.24 1.17 96 1006.0
20260506194537 58 285 2.0 11.0 0.23 1.20 1.14 96 1006.0
20260506194017 58 299 1.0 2.0 0.21 1.16 1.11 96 1006.2
20260506193516 58 0 0.0 3.0 0.21 1.16 1.10 96 1006.1
20260506193037 58 193 1.0 8.0 0.21 1.15 1.09 96 1006.0
20260506192517 58 206 2.0 8.0 0.20 1.13 1.07 96 1006.1
20260506192018 58 224 1.0 4.0 0.19 1.10 1.04 96 1006.2
20260506191543 58 93 1.0 4.0 0.18 1.08 1.02 96 1006.3
20260506191020 59 234 1.0 4.0 0.17 1.04 0.99 96 1006.4
20260506190525 59 225 1.0 4.0 0.17 1.02 0.96 96 1006.4
20260506190038 59 75 1.0 3.0 0.19 1.01 0.95 96 1006.5
20260506185519 58 215 0.0 3.0 0.20 1.00 0.94 96 1006.6
20260506185018 59 271 1.0 3.0 0.20 0.98 0.92 96 1006.7
20260506184537 59 204 1.0 3.0 0.19 0.96 0.90 96 1006.6
20260506184017 59 300 0.0 2.0 0.20 0.96 0.90 96 1006.7
20260506183517 59 0 0.0 4.0 0.20 0.95 0.89 96 1006.7
20260506183041 58 139 1.0 4.0 0.21 0.94 0.88 96 1006.8
20260506182519 58 230 0.0 3.0 0.21 0.93 0.87 96 1006.9
20260506182018 58 316 1.0 3.0 0.21 0.91 0.85 96 1007.0
20260506181532 59 276 0.0 3.0 0.20 0.89 0.83 96 1007.1
20260506181017 59 221 1.0 5.0 0.20 0.87 0.81 96 1007.0
20260506180516 59 210 1.0 5.0 0.20 0.85 0.79 96 1007.3
20260506180036 59 5 1.0 5.0 0.18 0.82 0.76 96 1007.2
20260506175519 59 332 1.0 5.0 0.18 0.80 0.74 96 1007.3
20260506175017 59 194 0.0 5.0 0.18 0.78 0.72 96 1007.3
20260506174531 59 283 2.0 4.0 0.19 0.77 0.71 96 1007.3
20260506174017 59 341 1.0 3.0 0.20 0.76 0.70 96 1007.3
20260506173518 59 323 1.0 4.0 0.20 0.74 0.68 96 1007.4
20260506173038 58 327 1.0 4.0 0.21 0.73 0.67 96 1007.5
20260506172521 58 283 1.0 3.0 0.22 0.72 0.66 96 1007.4
20260506172018 58 253 1.0 3.0 0.22 0.70 0.64 96 1007.5
20260506171539 58 333 1.0 3.0 0.23 0.69 0.63 96 1007.7
20260506171021 58 161 1.0 3.0 0.23 0.67 0.61 96 1007.7
20260506170522 58 309 0.0 3.0 0.25 0.65 0.58 96 1007.8
20260506170046 58 30 0.0 3.0 0.27 0.64 0.58 96 1007.9
20260506165521 58 227 1.0 3.0 0.27 0.62 0.56 96 1007.9
20260506165020 58 143 1.0 4.0 0.27 0.60 0.54 96 1008.0
20260506164534 58 245 1.0 4.0 0.27 0.58 0.52 96 1008.1
20260506164023 58 225 0.0 5.0 0.26 0.56 0.50 96 1008.0
20260506163517 58 224 1.0 5.0 0.25 0.54 0.48 96 1008.1
20260506163042 58 0 0.0 0.0 0.25 0.52 0.46 96 1008.1
20260506162523 58 0 0.0 0.0 0.25 0.50 0.44 96 1008.2
20260506162024 58 0 0.0 0.0 0.25 0.48 0.42 96 1008.1
20260506161540 58 0 0.0 0.0 0.24 0.46 0.40 96 1008.3
20260506161021 58 0 0.0 0.0 0.22 0.43 0.37 96 1008.2
20260506160522 58 0 0.0 0.0 0.20 0.40 0.34 95 1008.3
20260506160041 58 0 0.0 0.0 0.18 0.37 0.31 96 1008.3
20260506155522 58 0 0.0 0.0 0.16 0.34 0.28 96 1008.1
20260506155020 58 0 0.0 0.0 0.16 0.33 0.27 96 1008.3
20260506154541 58 0 0.0 0.0 0.15 0.31 0.25 96 1008.4
20260506154019 58 0 0.0 0.0 0.16 0.30 0.24 96 1008.3
20260506153519 58 0 0.0 0.0 0.17 0.29 0.23 95 1008.5
20260506153034 58 0 0.0 0.0 0.16 0.27 0.21 95 1008.6
20260506152518 58 0 0.0 0.0 0.15 0.25 0.19 95 1008.8
20260506152021 58 0 0.0 0.0 0.13 0.23 0.17 95 1008.9
20260506151537 58 0 0.0 0.0 0.12 0.22 0.16 96 1008.9
20260506151017 58 0 0.0 0.0 0.11 0.21 0.15 95 1008.9
20260506150518 58 0 0.0 0.0 0.11 0.20 0.14 95 1009.1
20260506150038 57 0 0.0 0.0 0.10 0.19 0.13 95 1009.1
20260506145521 57 0 0.0 0.0 0.09 0.18 0.12 95 1009.2
20260506145020 57 0 0.0 0.0 0.09 0.17 0.11 95 1009.3
20260506144545 57 0 0.0 0.0 0.08 0.16 0.10 95 1009.4
20260506144020 57 0 0.0 0.0 0.06 0.14 0.08 95 1009.4
20260506143518 57 0 0.0 0.0 0.05 0.12 0.06 95 1009.7
20260506143035 57 0 0.0 0.0 0.04 0.11 0.05 95 1009.7
20260506142520 58 0 0.0 0.0 0.03 0.10 0.04 95 1009.7
20260506142019 58 0 0.0 0.0 0.03 0.10 0.04 95 1009.5
20260506141535 57 0 0.0 0.0 0.03 0.10 0.04 95 1009.5
20260506141019 57 0 0.0 0.0 0.03 0.10 0.04 95 1009.4
20260506140520 57 0 0.0 0.0 0.03 0.09 0.03 95 1009.2
20260506140034 57 0 0.0 0.0 0.03 0.09 0.03 95 1009.3
20260506135519 57 0 0.0 0.0 0.03 0.09 0.03 95 1009.2
20260506135018 57 0 0.0 0.0 0.02 0.08 0.02 95 1009.2
20260506134537 57 0 0.0 0.0 0.02 0.08 0.02 95 1009.0
20260506134019 57 0 0.0 0.0 0.01 0.07 0.01 95 1009.1
20260506133519 57 0 0.0 0.0 0.01 0.07 0.01 95 1009.0
20260506133037 57 0 0.0 0.0 0.01 0.07 0.01 95 1009.0
20260506132519 57 0 0.0 0.0 0.01 0.07 0.01 95 1009.0
20260506132022 57 0 0.0 0.0 0.01 0.07 0.01 95 1008.9
20260506131537 56 0 0.0 0.0 0.01 0.07 0.01 95 1009.0
20260506131017 56 0 0.0 0.0 0.01 0.07 0.01 95 1009.1
20260506130520 56 0 0.0 0.0 0.00 0.06 0.00 95 1009.0
20260506130037 56 0 0.0 0.0 0.00 0.06 0.00 95 1009.3
20260506125517 56 0 0.0 0.0 0.00 0.06 0.00 95 1009.3
20260506125023 56 0 0.0 0.0 0.00 0.06 0.00 95 1009.5
20260506124536 56 0 0.0 0.0 0.00 0.06 0.00 95 1009.6
20260506124021 56 0 0.0 0.0 0.00 0.06 0.00 95 1009.7
20260506123521 56 0 0.0 0.0 0.00 0.06 0.00 95 1009.6
20260506123035 56 0 0.0 0.0 0.00 0.06 0.00 95 1010.0
20260506122516 55 0 0.0 1.0 0.00 0.06 0.00 95 1009.8
20260506122017 55 0 0.0 1.0 0.00 0.06 0.00 95 1009.7
20260506121538 55 247 0.0 1.0 0.00 0.06 0.00 95 1009.5
20260506121018 55 0 0.0 1.0 0.00 0.06 0.00 95 1009.5
20260506120518 54 246 0.0 1.0 0.00 0.06 0.00 95 1009.5
20260506120042 54 271 0.0 3.0 0.00 0.06 0.00 95 1009.6
20260506115520 54 271 1.0 3.0 0.00 0.07 0.00 95 1009.5
20260506115019 54 176 0.0 3.0 0.00 0.07 0.00 95 1009.0
20260506114534 54 207 1.0 3.0 0.00 0.07 0.00 95 1009.1
20260506114020 54 24 1.0 2.0 0.00 0.07 0.00 95 1009.1
20260506113519 54 101 1.0 2.0 0.00 0.07 0.00 95 1009.3
20260506113034 53 327 0.0 3.0 0.00 0.07 0.00 95 1009.4
20260506112518 53 327 1.0 3.0 0.00 0.07 0.00 95 1009.4
20260506112018 53 242 0.0 2.0 0.00 0.07 0.00 95 1009.4
20260506111538 53 245 1.0 2.0 0.00 0.07 0.00 95 1009.6
20260506111019 53 200 0.0 0.0 0.00 0.07 0.00 95 1009.5
20260506110518 53 0 0.0 0.0 0.00 0.07 0.00 95 1009.4
20260506110037 53 0 0.0 0.0 0.00 0.07 0.00 95 1009.3
20260506105520 53 0 0.0 0.0 0.00 0.08 0.00 95 1009.3
20260506105020 52 0 0.0 1.0 0.00 0.08 0.00 95 1009.4
20260506104539 52 0 0.0 1.0 0.00 0.08 0.00 95 1009.1
20260506104018 52 0 0.0 1.0 0.00 0.08 0.00 95 1009.1
20260506103518 52 165 0.0 1.0 0.00 0.08 0.00 95 1009.2
20260506103046 52 172 0.0 1.0 0.00 0.08 0.00 95 1009.2
20260506102520 52 171 0.0 1.0 0.00 0.08 0.00 95 1009.1
20260506102020 52 171 0.0 1.0 0.00 0.08 0.00 95 1009.0
20260506101536 52 0 0.0 1.0 0.00 0.08 0.00 95 1009.2
20260506101024 52 170 0.0 1.0 0.00 0.08 0.00 95 1009.1
20260506100522 52 0 0.0 0.0 0.00 0.08 0.00 95 1009.0
20260506100038 52 0 0.0 0.0 0.00 0.08 0.00 95 1009.2
20260506095521 52 0 0.0 0.0 0.00 0.08 0.00 95 1009.1
20260506095020 52 0 0.0 0.0 0.00 0.08 0.00 95 1009.1
20260506094539 52 164 0.0 0.0 0.00 0.08 0.00 95 1009.2
20260506094018 52 0 0.0 0.0 0.00 0.08 0.00 95 1009.1
20260506093522 52 164 0.0 0.0 0.00 0.08 0.00 95 1009.0
20260506093037 52 0 0.0 0.0 0.00 0.08 0.00 95 1009.0
20260506092518 52 0 0.0 0.0 0.00 0.08 0.00 95 1009.2
20260506092018 52 0 0.0 0.0 0.00 0.08 0.00 95 1009.3
20260506091537 52 0 0.0 0.0 0.00 0.08 0.00 95 1009.1
20260506091019 52 0 0.0 0.0 0.00 0.08 0.00 95 1009.2
20260506090519 52 0 0.0 0.0 0.00 0.08 0.00 95 1009.3
20260506090044 52 0 0.0 0.0 0.00 0.08 0.00 95 1009.3
20260506085521 52 0 0.0 0.0 0.00 0.08 0.00 95 1009.5
20260506085019 52 0 0.0 0.0 0.00 0.08 0.00 95 1009.3
20260506084541 53 0 0.0 0.0 0.00 0.08 0.00 95 1009.5
20260506084019 53 0 0.0 0.0 0.00 0.08 0.00 95 1009.6
20260506083518 53 0 0.0 0.0 0.00 0.08 0.00 95 1009.6
20260506083036 53 164 0.0 0.0 0.00 0.08 0.00 94 1009.7
20260506082515 53 0 0.0 0.0 0.00 0.08 0.00 95 1009.6
20260506082018 53 0 0.0 0.0 0.00 0.08 0.00 94 1009.8
20260506081541 53 0 0.0 0.0 0.00 0.08 0.00 94 1009.7
20260506081017 53 0 0.0 0.0 0.00 0.08 0.00 94 1009.8
20260506080519 53 0 0.0 0.0 0.00 0.08 0.00 94 1010.0
20260506073518 54 0 0.0 0.0 0.00 0.08 0.00 94 1009.9
20260506073043 54 0 0.0 0.0 0.00 0.08 0.00 94 1010.0
20260506072518 55 0 0.0 0.0 0.00 0.08 0.00 94 1010.1
20260506072017 55 0 0.0 0.0 0.00 0.08 0.00 94 1010.0
20260506071535 55 0 0.0 0.0 0.00 0.08 0.00 94 1010.0
20260506071019 55 0 0.0 0.0 0.00 0.08 0.00 94 1010.0
20260506070517 56 164 0.0 0.0 0.00 0.08 0.00 94 1009.9
20260506062018 57 0 0.0 0.0 0.00 0.08 0.00 93 1010.2
20260506061548 57 0 0.0 0.0 0.00 0.08 0.00 93 1010.3
20260506061019 58 0 0.0 0.0 0.00 0.08 0.00 92 1010.1
20260506060523 58 0 0.0 1.0 0.00 0.08 0.00 92 1010.1
20260506051018 60 281 0.0 9.0 0.00 0.08 0.00 90 1010.6
20260506050529 60 28 3.0 9.0 0.00 0.08 0.00 90 1010.6
20260506045020 57 77 1.0 2.0 0.00 0.08 0.00 94 1010.6
20260506044546 57 0 0.0 1.0 0.00 0.08 0.00 94 1010.5
20260506044021 57 331 0.0 1.0 0.00 0.08 0.00 94 1010.7
20260506043519 57 0 0.0 2.0 0.00 0.08 0.00 94 1010.7
20260506043041 57 0 0.0 2.0 0.00 0.08 0.00 94 1010.6
20260506042519 57 337 0.0 1.0 0.00 0.08 0.00 94 1010.7
20260506042018 57 0 0.0 1.0 0.00 0.08 0.00 94 1010.5
20260506041536 57 0 0.0 0.0 0.00 0.08 0.00 95 1010.4
20260506041019 57 0 0.0 0.0 0.00 0.08 0.00 94 1010.4
20260506040519 57 0 0.0 0.0 0.00 0.08 0.00 95 1010.5
20260506040035 57 0 0.0 0.0 0.00 0.08 0.00 95 1010.4
20260506035523 57 0 0.0 0.0 0.00 0.08 0.08 95 1010.4
20260506035017 57 0 0.0 0.0 0.00 0.08 0.08 95 1010.3
20260506034533 57 0 0.0 0.0 0.00 0.08 0.08 95 1010.4
20260506034016 57 0 0.0 0.0 0.00 0.08 0.08 95 1010.4
20260506033518 57 0 0.0 0.0 0.01 0.08 0.08 95 1010.3
20260506033038 57 0 0.0 0.0 0.01 0.08 0.08 95 1010.1
20260506032516 57 0 0.0 0.0 0.01 0.08 0.08 94 1010.2
20260506032017 57 0 0.0 0.0 0.01 0.08 0.08 94 1010.1
20260506031546 57 0 0.0 0.0 0.01 0.08 0.08 94 1010.3
20260506031019 57 0 0.0 2.0 0.01 0.08 0.08 94 1010.2
20260506030521 57 0 0.0 2.0 0.01 0.08 0.08 94 1009.9
20260506030036 57 246 1.0 2.0 0.01 0.08 0.08 94 1009.7
20260506025521 57 55 1.0 2.0 0.01 0.08 0.08 94 1010.0
20260506025019 57 294 0.0 3.0 0.01 0.08 0.08 94 1010.1
20260506024543 57 25 1.0 3.0 0.01 0.08 0.08 94 1010.0